Location: Taipo
(41.0000°S, 175.9500°E)
Time: 05:38:53
(UTC+00:00)

USA 238 - Visible Passes

Search period start: 16 July 2024 00:00
Search period end: 26 July 2024 00:00
Orbit: 920 x 1291 km, 63.4° (Epoch: 11 July)

Date Brightness Start Highest point End Pass type
(mag) Time Alt. Az. Time Alt. Az. Time Alt. Az.
16 Jul 6.8 05:50:54 10° WSW 05:53:58 14° WNW 05:56:58 10° NW visible
16 Jul 6.0 17:48:45 10° NNE 17:55:21 29° ENE 18:01:41 10° SE visible
17 Jul 6.6 17:05:50 10° NE 17:10:48 18° ENE 17:15:38 10° ESE visible
17 Jul 4.1 18:52:56 10° NNW 19:00:56 86° NE 19:08:29 10° SE visible
18 Jul 4.7 18:08:17 10° NNW 18:16:04 58° ENE 18:23:27 10° SE visible
19 Jul 5.4 17:24:08 10° N 17:31:19 38° ENE 17:38:11 10° SE visible
20 Jul 6.0 16:40:39 10° NNE 16:46:42 24° ENE 16:52:32 10° ESE visible
20 Jul 4.0 18:29:06 10° NW 18:37:06 77° SW 18:44:37 10° SSE visible
21 Jul 6.5 15:58:21 10° NE 16:02:12 14° ENE 16:05:59 10° ESE visible
21 Jul 4.2 17:44:12 10° NNW 17:52:10 74° ENE 17:59:40 10° SE visible
22 Jul 4.8 16:59:45 10° N 17:07:21 49° ENE 17:14:33 10° SE visible
22 Jul 4.3 18:51:00 10° WNW 18:58:28 44° SW 19:05:30 10° SSE visible
23 Jul 5.5 16:15:51 10° N 16:22:39 32° ENE 16:29:10 10° SE visible
23 Jul 4.0 18:05:27 10° NW 18:13:19 63° SW 18:20:43 10° SSE visible
24 Jul 6.0 15:32:45 10° NNE 15:38:05 20° ENE 15:43:15 10° ESE visible
24 Jul 3.9 17:20:17 10° NNW 17:28:18 89° WSW 17:35:51 10° SE visible
25 Jul 6.5 14:51:42 10° ENE 14:53:39 11° ENE 14:55:34 10° E visible
25 Jul 4.3 16:38:57 28° N 16:43:24 63° ENE 16:50:50 10° SE visible
25 Jul 4.5 18:27:42 10° WNW 18:34:49 36° SW 18:41:31 10° SSE visible
